EW6553 Weather Reports


time (UTC)temp
F
wind
direction
speed
knots
gust
knots
rain 1hr
in
rain 24hr
in
rain mn
in
humidity
%
barometer
mb
20260509173725 85 18 1.7 5.2 0.00 0.00 0.00 57 1010.3
20260509173226 85 343 1.7 5.2 0.00 0.00 0.00 56 1010.3
20260509172722 84 59 1.7 5.2 0.00 0.00 0.00 55 1010.4
20260509172223 85 46 2.6 7.0 0.00 0.00 0.00 56 1010.5
20260509171722 85 355 1.7 7.0 0.00 0.00 0.00 59 1010.4
20260509171223 84 350 1.7 5.2 0.00 0.00 0.00 59 1010.5
20260509170723 84 340 1.7 6.1 0.00 0.00 0.00 56 1010.6
20260509170223 84 344 1.7 6.1 0.00 0.00 0.00 56 1010.6
20260509165724 84 67 1.7 5.2 0.00 0.00 0.00 57 1010.5
20260509165223 84 331 1.7 7.0 0.00 0.00 0.00 57 1010.7
20260509164724 83 346 2.6 7.8 0.00 0.00 0.00 56 1010.6
20260509164223 83 355 2.6 7.8 0.00 0.00 0.00 56 1010.7
20260509163724 83 355 2.6 5.2 0.00 0.00 0.00 58 1010.8
20260509163222 83 355 2.6 7.0 0.00 0.00 0.00 56 1010.9
20260509162723 82 86 1.7 7.0 0.00 0.00 0.00 55 1010.8
20260509162217 82 19 2.6 7.8 0.00 0.00 0.00 56 1010.7
20260509161711 82 44 2.6 8.7 0.00 0.00 0.00 58 1010.7
20260509161211 82 15 2.6 8.7 0.00 0.00 0.00 56 1010.6
20260509160711 82 328 3.5 8.7 0.00 0.00 0.00 59 1010.6
20260509160211 82 355 3.5 8.7 0.00 0.00 0.00 59 1010.6
20260509155941 82 327 2.6 8.7 0.00 0.00 0.00 59 1010.6
20260509155211 81 344 2.6 7.8 0.00 0.00 0.00 57 1010.6
20260509154709 81 14 2.6 7.8 0.00 0.00 0.00 59 1010.5
20260509154210 81 332 3.5 7.8 0.00 0.00 0.00 59 1010.7
20260509153710 80 292 3.5 7.8 0.00 0.00 0.00 59 1010.6
20260509153210 80 355 3.5 8.7 0.00 0.00 0.00 61 1010.6
20260509152711 79 327 3.5 9.6 0.00 0.00 0.00 59 1010.6
20260509152431 79 0 3.5 9.6 0.00 0.00 0.00 61 1010.5
20260509151706 79 331 2.6 7.8 0.00 0.00 0.00 61 1010.7
20260509151208 79 5 1.7 5.2 0.00 0.00 0.00 63 1010.6
20260509150706 78 5 2.6 7.0 0.00 0.00 0.00 64 1010.6
20260509150205 78 347 2.6 7.0 0.00 0.00 0.00 66 1010.7
20260509145705 78 284 2.6 7.0 0.00 0.00 0.00 67 1010.6
20260509145205 77 335 3.5 8.7 0.00 0.00 0.00 67 1010.7
20260509144702 77 355 3.5 8.7 0.00 0.00 0.00 68 1010.7
20260509144429 77 344 2.6 7.0 0.00 0.00 0.00 68 1010.8
20260509143702 76 57 2.6 7.8 0.00 0.00 0.00 68 1010.7
20260509143428 76 0 3.5 9.6 0.00 0.00 0.00 69 1010.7
20260509142926 76 325 3.5 9.6 0.00 0.00 0.00 69 1010.8
20260509142201 76 229 2.6 8.7 0.00 0.00 0.00 70 1010.6
20260509141704 76 11 2.6 8.7 0.00 0.00 0.00 71 1010.6
20260509141700 75 240 1.7 5.2 0.00 0.00 0.00 73 1010.5
20260509140701 75 236 1.7 5.2 0.00 0.00 0.00 76 1010.7
20260509140202 74 0 1.7 5.2 0.00 0.00 0.00 78 1010.6
20260509135701 74 323 1.7 4.3 0.00 0.00 0.00 80 1010.7
20260509135201 73 44 1.7 4.3 0.00 0.00 0.00 81 1010.8
20260509134701 72 336 1.7 4.3 0.00 0.00 0.00 82 1010.8
20260509134201 72 339 1.7 4.3 0.00 0.00 0.00 82 1010.7
20260509133700 72 347 2.6 6.1 0.00 0.00 0.00 83 1010.6
20260509133201 72 335 2.6 7.8 0.00 0.00 0.00 84 1010.6
20260509132701 71 286 2.6 7.8 0.00 0.00 0.00 84 1010.6
20260509132435 71 333 1.7 7.8 0.00 0.00 0.00 85 1010.7
20260509131700 71 330 1.7 7.8 0.00 0.00 0.00 85 1010.7
20260509131653 70 350 1.7 4.3 0.00 0.00 0.00 86 1010.7
20260509130701 70 320 1.7 3.5 0.00 0.00 0.00 86 1010.7
20260509130201 69 337 1.7 3.5 0.00 0.00 0.00 87 1010.7
20260509125706 69 316 1.7 3.5 0.00 0.00 0.00 87 1010.8
20260509125209 69 333 1.7 3.5 0.00 0.00 0.00 87 1010.7
20260509124702 69 344 1.7 5.2 0.00 0.00 0.00 87 1010.7
20260509124422 69 324 1.7 5.2 0.00 0.00 0.00 87 1010.7
20260509123701 69 308 2.6 5.2 0.00 0.00 0.00 87 1010.7
20260509123201 69 339 2.6 5.2 0.00 0.00 0.00 87 1010.7
20260509122701 69 319 2.6 4.3 0.00 0.00 0.00 86 1010.7
20260509122201 69 355 2.6 5.2 0.00 0.00 0.00 86 1010.6
20260509121935 69 329 2.6 5.2 0.00 0.00 0.00 86 1010.5
20260509121202 68 335 1.7 4.3 0.00 0.00 0.00 86 1010.6
20260509120702 68 319 1.7 3.5 0.00 0.00 0.00 85 1010.4
20260509120202 68 298 1.7 3.5 0.00 0.00 0.00 85 1010.5
20260509115925 68 330 1.7 3.5 0.00 0.00 0.00 85 1010.4
20260509115200 68 350 1.7 3.5 0.00 0.00 0.00 84 1010.2
20260509114924 68 338 1.7 4.3 0.00 0.00 0.00 84 1010.1
20260509114201 69 325 1.7 4.3 0.00 0.00 0.00 83 1010.1
20260509113659 69 336 1.7 5.2 0.00 0.00 0.00 82 1009.9
20260509113158 68 333 1.7 5.2 0.00 0.00 0.00 82 1009.9
20260509112652 68 311 1.7 4.3 0.00 0.00 0.00 81 1009.9
20260509112146 68 339 1.7 3.5 0.00 0.00 0.00 81 1009.5
20260509111640 68 331 0.9 2.6 0.00 0.00 0.00 81 1009.5
20260509111134 69 267 0.9 2.6 0.00 0.00 0.00 80 1009.4
20260509110630 69 266 1.7 2.6 0.00 0.00 0.00 80 1009.1
20260509110129 69 265 1.7 2.6 0.00 0.00 0.00 80 1009.2
20260509105630 69 321 1.7 3.5 0.00 0.00 0.00 80 1009.0
20260509105133 69 355 1.7 3.5 0.00 0.00 0.00 80 1008.9
20260509104629 69 265 1.7 3.5 0.00 0.00 0.00 79 1009.1
20260509104129 69 264 1.7 3.5 0.00 0.00 0.00 79 1009.1
20260509103629 69 266 0.9 2.6 0.00 0.00 0.00 79 1009.1
20260509103351 69 265 1.7 2.6 0.00 0.00 0.00 79 1009.0
20260509102629 69 267 1.7 3.5 0.00 0.00 0.00 79 1009.1
20260509102130 69 309 1.7 3.5 0.00 0.00 0.00 79 1009.0
20260509101629 69 321 1.7 3.5 0.00 0.00 0.00 81 1009.0
20260509101129 69 240 1.7 3.5 0.00 0.00 0.00 82 1009.0
20260509100629 69 264 1.7 2.6 0.00 0.00 0.00 83 1009.0
20260509100129 69 273 0.9 2.6 0.00 0.00 0.00 83 1008.9
20260509095629 69 273 0.9 2.6 0.00 0.00 0.00 84 1008.8
20260509095129 70 235 0.0 1.7 0.00 0.00 0.00 83 1008.7
20260509094629 70 235 0.0 1.7 0.00 0.00 0.00 83 1008.5
20260509094131 70 235 0.9 2.6 0.00 0.00 0.00 83 1008.4
20260509093854 70 235 0.9 2.6 0.00 0.00 0.00 83 1008.3
20260509093129 71 235 0.9 2.6 0.00 0.00 0.00 84 1008.2
20260509092629 71 355 1.7 3.5 0.00 0.00 0.00 84 1008.3
20260509092348 71 355 2.6 7.8 0.00 0.00 0.00 85 1008.4
20260509091628 71 9 2.6 7.8 0.00 0.00 0.00 85 1008.4
20260509091129 71 355 2.6 6.1 0.00 0.00 0.00 85 1008.1
20260509090628 71 18 3.5 6.1 0.00 0.00 0.00 86 1007.9
20260509090351 71 16 3.5 7.0 0.00 0.00 0.00 86 1007.3
20260509085629 71 220 3.5 7.0 0.00 0.00 0.00 86 1006.8
20260509085129 71 217 3.5 7.8 0.00 0.00 0.00 86 1007.0
20260509084629 71 225 3.5 8.7 0.00 0.00 0.00 86 1007.1
20260509084129 71 208 2.6 8.7 0.00 0.00 0.00 86 1007.2
20260509083903 71 217 2.6 6.1 0.00 0.00 0.00 86 1007.0
20260509083130 70 257 2.6 6.1 0.00 0.00 0.00 86 1007.3
20260509082629 70 225 2.6 7.8 0.00 0.00 0.00 86 1006.8
20260509082136 70 176 2.6 7.8 0.00 0.00 0.00 87 1006.7
20260509081630 70 182 2.6 6.1 0.00 0.00 0.00 86 1007.0
20260509081125 70 161 1.7 5.2 0.00 0.00 0.00 86 1007.1
20260509080618 70 182 1.7 5.2 0.00 0.00 0.00 86 1007.5
20260509080114 70 184 2.6 5.2 0.00 0.00 0.00 86 1008.2
20260509075617 70 210 2.6 5.2 0.00 0.00 0.00 86 1008.7
20260509075341 70 158 2.6 6.1 0.00 0.00 0.00 86 1008.8
20260509074841 70 207 3.5 7.0 0.00 0.00 0.00 86 1009.1
20260509074342 70 219 4.3 10.4 0.00 0.00 0.00 86 1009.4
20260509073837 70 223 5.2 10.4 0.00 0.00 0.00 86 1009.5
20260509073111 70 239 5.2 8.7 0.00 0.00 0.00 86 1009.8
20260509072612 70 225 5.2 8.7 0.00 0.00 0.00 86 1009.9
20260509072112 70 222 4.3 7.8 0.00 0.00 0.00 86 1010.0
20260509071612 70 227 4.3 7.0 0.00 0.00 0.00 86 1010.2
20260509071113 70 215 4.3 7.8 0.00 0.00 0.00 86 1010.5
20260509070610 70 243 5.2 7.8 0.00 0.00 0.00 86 1010.6
20260509070110 70 226 4.3 8.7 0.00 0.00 0.00 86 1010.8
20260509065608 70 229 4.3 8.7 0.00 0.00 0.00 87 1010.7
20260509065338 70 235 3.5 7.0 0.00 0.00 0.00 87 1011.2
20260509064608 70 229 3.5 7.0 0.00 0.00 0.00 87 1011.3
20260509064108 70 238 2.6 6.1 0.00 0.00 0.00 87 1011.2
20260509063834 69 250 2.6 4.3 0.00 0.00 0.00 87 1011.0
20260509063104 69 227 1.7 4.3 0.00 0.00 0.00 87 1010.9
20260509062604 69 228 1.7 3.5 0.00 0.00 0.00 87 1011.0
20260509062104 69 227 1.7 2.6 0.00 0.00 0.00 87 1011.0
20260509061602 69 227 1.7 2.6 0.00 0.00 0.00 87 1011.0
20260509061102 69 227 0.9 2.6 0.00 0.00 0.00 86 1011.0
20260509060827 70 227 0.9 2.6 0.00 0.00 0.00 86 1010.9
20260509060100 70 227 0.9 2.6 0.00 0.00 0.00 86 1011.1
20260509055600 70 227 0.9 2.6 0.00 0.00 0.00 86 1010.8
20260509055100 70 5 0.0 0.0 0.00 0.00 0.00 86 1011.0
20260509054559 70 5 0.0 1.7 0.00 0.00 0.00 86 1011.3
20260509054058 70 5 0.9 1.7 0.00 0.00 0.00 85 1011.2
20260509053558 70 5 0.0 1.7 0.00 0.00 0.00 85 1011.2
20260509053322 71 5 0.0 1.7 0.00 0.00 0.00 84 1011.3
20260509052555 71 5 0.9 1.7 0.00 0.00 0.00 84 1011.4
20260509052054 71 5 0.9 3.5 0.00 0.00 0.00 84 1011.5
20260509051552 71 5 0.9 3.5 0.00 0.00 0.00 84 1011.5
20260509051052 71 55 0.9 2.6 0.00 0.00 0.00 84 1011.7
20260509050552 71 196 0.9 2.6 0.00 0.00 0.00 83 1011.2
20260509050051 71 193 0.9 0.9 0.00 0.00 0.00 83 1010.5
20260509045549 72 193 0.0 1.7 0.00 0.00 0.00 82 1010.6
20260509045050 72 193 0.9 3.5 0.00 0.00 0.00 82 1010.6
20260509044550 72 193 1.7 3.5 0.00 0.00 0.00 82 1010.5
20260509044050 72 192 1.7 3.5 0.00 0.00 0.00 82 1010.4
20260509043545 72 175 0.9 2.6 0.00 0.00 0.00 82 1010.3
20260509043046 72 203 1.7 4.3 0.00 0.00 0.00 82 1010.2
20260509042546 72 207 0.9 4.3 0.00 0.00 0.00 82 1010.1
20260509042046 72 176 0.9 3.5 0.00 0.00 0.00 81 1010.1
20260509041546 72 176 0.9 3.5 0.00 0.00 0.00 81 1010.2
20260509041048 72 159 0.9 3.5 0.00 0.00 0.00 80 1010.1
20260509040549 73 159 0.9 3.5 0.00 0.00 0.00 80 1010.3
20260509040049 73 92 0.0 1.7 0.00 0.00 0.00 80 1010.4
20260509035817 73 92 0.0 1.7 0.00 0.00 0.00 80 1010.4
20260509035046 73 86 0.0 1.7 0.00 0.00 0.00 80 1010.4
20260509034545 73 85 0.0 0.9 0.00 0.00 0.00 80 1010.6
20260509034044 73 85 0.0 0.9 0.00 0.00 0.00 80 1010.6
20260509033541 73 85 0.0 0.9 0.00 0.00 0.00 80 1010.6
20260509033042 73 144 0.0 1.7 0.00 0.00 0.00 80 1010.6
20260509032543 73 144 0.0 1.7 0.00 0.00 0.00 80 1010.4
20260509032040 73 144 0.9 2.6 0.00 0.00 0.00 80 1010.1
20260509031540 73 144 0.9 2.6 0.00 0.00 0.00 79 1009.6
20260509031037 73 139 0.9 2.6 0.00 0.00 0.00 79 1009.5
20260509030535 73 148 0.9 2.6 0.00 0.00 0.00 79 1009.4
20260509030033 73 190 0.9 2.6 0.00 0.00 0.00 79 1009.3
20260509025801 73 190 0.9 4.3 0.00 0.00 0.00 79 1009.2
20260509025030 73 196 0.9 4.3 0.00 0.00 0.00 79 1009.3
20260509024758 73 172 0.9 4.3 0.00 0.00 0.00 79 1009.1
20260509024511 73 173 1.7 4.3 0.00 0.00 0.00 79 1008.8
20260509023515 73 196 1.7 4.3 0.00 0.00 0.00 79 1008.7
20260509023009 73 194 1.7 4.3 0.00 0.00 0.00 79 1008.6
20260509022505 73 200 1.7 4.3 0.00 0.00 0.00 79 1008.6
20260509022237 73 170 1.7 4.3 0.00 0.00 0.00 79 1008.6
20260509021504 73 183 1.7 5.2 0.00 0.00 0.00 79 1008.6
20260509021003 73 187 1.7 5.2 0.00 0.00 0.00 78 1008.5
20260509020506 73 192 1.7 5.2 0.00 0.00 0.00 78 1008.3
20260509020005 73 181 1.7 4.3 0.00 0.00 0.00 77 1008.3
20260509015730 73 184 1.7 4.3 0.00 0.00 0.00 77 1008.4
20260509015004 73 187 0.9 3.5 0.00 0.00 0.00 77 1008.6
20260509014507 73 162 0.9 3.5 0.00 0.00 0.00 77 1008.8
20260509014004 73 156 0.9 3.5 0.00 0.00 0.00 77 1008.8
20260509013504 73 173 0.9 2.6 0.00 0.00 0.00 77 1008.7
20260509013005 74 184 0.9 2.6 0.00 0.00 0.00 77 1008.7
20260509012501 74 196 0.0 1.7 0.00 0.00 0.00 77 1008.8
20260509012001 74 196 0.0 1.7 0.00 0.00 0.00 76 1008.8
20260509011501 74 196 0.9 2.6 0.00 0.00 0.00 77 1008.8
20260509011001 74 196 0.9 3.5 0.00 0.00 0.00 76 1008.7
20260509010501 73 196 0.9 3.5 0.00 0.00 0.00 76 1008.5
20260509005959 74 196 1.7 3.5 0.00 0.00 0.00 76 1008.5
20260509005452 74 196 1.7 3.5 0.00 0.00 0.00 76 1008.3
20260509005441 74 200 1.7 3.5 0.00 0.00 0.00 76 1008.2
20260509004441 74 169 1.7 3.5 0.00 0.00 0.00 76 1008.2
20260509003941 74 182 1.7 3.5 0.00 0.00 0.00 75 1008.2
20260509003442 74 207 1.7 4.3 0.00 0.00 0.00 75 1008.1
20260509003214 74 211 1.7 5.2 0.00 0.00 0.00 75 1008.1
20260509002442 74 207 1.7 5.2 0.00 0.00 0.00 75 1008.0
20260509001942 74 182 1.7 5.2 0.00 0.00 0.00 74 1008.0
20260509001441 74 207 1.7 5.2 0.00 0.00 0.00 74 1008.0
20260509000943 74 204 1.7 3.5 0.00 0.00 0.00 74 1008.0
20260509000442 74 166 1.7 5.2 0.00 0.00 0.00 74 1008.1
20260508235941 74 218 1.7 5.2 0.00 0.00 0.00 74 1008.1
20260508235706 74 182 1.7 4.3 0.00 0.00 0.00 73 1008.2
20260508234940 74 213 1.7 4.3 0.00 0.00 0.00 74 1008.2
20260508234440 74 215 2.6 6.1 0.00 0.00 0.00 73 1008.2
20260508233940 74 208 2.6 6.1 0.00 0.00 0.00 73 1008.4
20260508233439 74 169 2.6 7.0 0.00 0.00 0.00 73 1008.4
20260508232938 75 218 2.6 7.0 0.00 0.00 0.00 73 1008.6
20260508232440 75 163 3.5 7.8 0.00 0.00 0.00 72 1008.6
20260508232436 75 226 3.5 7.8 0.00 0.00 0.00 72 1008.6
20260508231438 75 237 2.6 7.0 0.00 0.00 0.00 71 1008.6
20260508230931 76 219 1.7 7.0 0.00 0.00 0.00 70 1008.6
20260508230425 76 216 1.7 5.2 0.00 0.00 0.00 70 1008.5
20260508225919 76 223 2.6 5.2 0.00 0.00 0.00 70 1008.5
20260508225416 76 163 2.6 5.2 0.00 0.00 0.00 69 1008.5
20260508225404 77 188 2.6 5.2 0.00 0.00 0.00 68 1008.5
20260508224405 76 169 2.6 8.7 0.00 0.00 0.00 68 1008.4
20260508223901 77 211 2.6 8.7 0.00 0.00 0.00 67 1008.5
20260508223400 77 196 3.5 9.6 0.00 0.00 0.00 67 1008.5
20260508223123 78 214 3.5 9.6 0.00 0.00 0.00 67 1008.4
20260508222401 78 211 2.6 9.6 0.00 0.00 0.00 68 1008.4
20260508221902 77 194 2.6 7.8 0.00 0.00 0.00 68 1008.6
20260508221401 77 175 2.6 7.8 0.00 0.00 0.00 67 1008.5
20260508220901 78 175 2.6 7.0 0.00 0.00 0.00 66 1008.6
20260508220401 77 165 2.6 7.0 0.00 0.00 0.00 65 1008.5
20260508220124 77 207 3.5 7.8 0.00 0.00 0.00 66 1008.5
20260508215404 77 196 3.5 7.8 0.00 0.00 0.00 65 1008.7
20260508214904 77 238 3.5 7.8 0.00 0.00 0.00 65 1008.6
20260508214404 78 172 2.6 6.1 0.00 0.00 0.00 64 1008.7
20260508213904 78 208 2.6 9.6 0.00 0.00 0.00 63 1008.7
20260508213404 78 221 2.6 9.6 0.00 0.00 0.00 63 1008.7
20260508212910 77 221 2.6 5.2 0.00 0.00 0.00 64 1008.8
20260508212404 76 180 2.6 6.1 0.00 0.00 0.00 64 1008.9
20260508211902 76 191 2.6 7.0 0.00 0.00 0.00 64 1009.0
20260508211354 76 200 2.6 7.0 0.00 0.00 0.00 65 1009.1
20260508210846 76 173 2.6 6.1 0.00 0.00 0.00 65 1009.1
20260508210336 76 238 2.6 8.7 0.00 0.00 0.00 65 1009.3
20260508205840 76 219 2.6 8.7 0.00 0.00 0.00 64 1009.4
20260508205335 77 173 2.6 6.1 0.00 0.00 0.00 63 1009.4
20260508204839 77 191 2.6 6.1 0.00 0.00 0.00 62 1009.3
20260508204335 77 176 1.7 4.3 0.00 0.00 0.00 64 1009.4
20260508203836 76 159 1.7 4.3 0.00 0.00 0.00 65 1009.3
20260508203559 75 171 1.7 4.3 0.00 0.00 0.00 66 1009.4
20260508202835 74 219 1.7 4.3 0.00 0.00 0.00 69 1009.9
20260508202334 72 186 1.7 4.3 0.00 0.00 0.00 70 1010.2
20260508201835 72 168 2.6 4.3 0.00 0.00 0.00 69 1010.5
20260508201335 72 213 2.6 7.8 0.00 0.00 0.00 69 1010.8
20260508200835 72 229 3.5 7.8 0.00 0.00 0.00 69 1011.0
20260508200335 72 213 3.5 6.1 0.00 0.00 0.00 69 1011.3
20260508195833 72 241 4.3 8.7 0.00 0.00 0.00 69 1011.1
20260508195333 73 213 3.5 8.7 0.00 0.00 0.00 68 1011.0
20260508195103 73 233 2.6 7.8 0.00 0.00 0.00 67 1011.0
20260508194559 74 205 2.6 6.1 0.00 0.00 0.00 67 1010.9
20260508193833 74 215 3.5 7.0 0.00 0.00 0.00 66 1011.0
20260508193332 75 227 2.6 7.0 0.00 0.00 0.00 67 1010.9
20260508192833 75 169 2.6 6.1 0.00 0.00 0.00 67 1010.9
20260508192333 74 213 2.6 6.1 0.00 0.00 0.00 67 1010.9
20260508192053 74 219 2.6 7.0 0.00 0.00 0.00 67 1011.0
20260508191331 74 155 2.6 7.0 0.00 0.00 0.00 67 1011.0
20260508190831 74 242 2.6 8.7 0.00 0.00 0.00 67 1011.0
20260508190331 74 204 2.6 8.7 0.00 0.00 0.00 68 1011.1
20260508190053 74 213 1.7 5.2 0.00 0.00 0.00 67 1011.2
20260508185556 74 213 2.6 6.1 0.00 0.00 0.00 67 1011.2
20260508184831 75 235 2.6 6.1 0.00 0.00 0.00 67 1011.3
20260508184331 75 205 2.6 4.3 0.00 0.00 0.00 67 1011.3
20260508183829 75 227 2.6 7.0 0.00 0.00 0.00 67 1011.4
20260508183552 75 139 2.6 7.0 0.00 0.00 0.00 66 1011.6
20260508182829 75 200 2.6 7.8 0.00 0.00 0.00 65 1011.6
20260508182329 76 214 2.6 7.8 0.00 0.00 0.00 66 1011.6
20260508181829 75 212 2.6 5.2 0.00 0.00 0.00 66 1011.6
20260508181328 75 213 3.5 7.0 0.00 0.00 0.00 65 1011.7
20260508180828 75 198 2.6 7.0 0.00 0.00 0.00 66 1011.7
20260508180329 75 216 2.6 7.0 0.00 0.00 0.00 65 1011.8
20260508175829 75 188 1.7 5.2 0.00 0.00 0.00 64 1011.9
20260508175551 75 173 2.6 7.0 0.00 0.00 0.00 64 1012.0
20260508174829 75 234 2.6 7.0 0.00 0.00 0.00 65 1012.1
20260508174329 74 199 2.6 6.1 0.00 0.00 0.00 64 1012.1
20260508174053 74 191 2.6 7.8 0.00 0.00 0.00 64 1012.3